This demonstration page uses our WeatherBlox Daily Observations layout. Learn more.

Hourly Observations for October 29, 2016

Temp ( °F °C ) Dew Point ( °F °C ) Humidity (%) Winds ( mph kmh ) Pressure ( in mb ) Visibility ( mi km ) Precip ( " mm )
12:15 am 00:15 Clear 58 14.7 40 4.5 51 51 SW 3 6 29.85 1011 10 16.09344 0 0
12:35 am 00:35 Clear 55 12.7 41 4.9 59 59 SSW 6 9 29.85 1011 10 16.09344 0 0
12:55 am 00:55 Clear 59 15 40 4.7 50 50 SSW 5 7 29.83 1010 10 16.09344 0 0
1:15 am 01:15 Clear 55 12.5 40 4.7 59 59 SW 3 6 29.85 1011 10 16.09344 0 0
1:35 am 01:35 Clear 52 11 40 4.4 64 64 Calm 29.88 1012 10 16.09344 0 0
1:55 am 01:55 Clear 51 10.8 40 4.5 65 65 Calm 29.88 1012 10 16.09344 0 0
2:15 am 02:15 Clear 52 11 40 4.5 65 65 Calm 29.88 1012 10 16.09344 0 0
2:35 am 02:35 Clear 51 10.7 40 4.5 66 66 Calm 29.85 1011 10 16.09344 0 0
2:55 am 02:55 Clear 52 11.1 41 4.8 65 65 NNE 3 6 29.83 1010 10 16.09344 0 0
3:15 am 03:15 Clear 53 11.6 40 4.7 63 63 NE 3 6 29.83 1010 10 16.09344 0 0
3:35 am 03:35 Clear 54 12 41 4.8 62 62 Calm 29.83 1010 10 16.09344 0 0
3:55 am 03:55 Clear 52 11.2 40 4.6 64 64 Calm 29.83 1010 10 16.09344 0 0
4:15 am 04:15 Clear 52 10.9 40 4.7 66 66 ESE 3 6 29.85 1011 10 16.09344 0 0
4:35 am 04:35 Clear 54 12.4 41 5.1 61 61 SE 3 6 29.83 1010 7 11.265408 0 0
4:55 am 04:55 Clear 52 11 40 4.7 65 65 ESE 3 6 29.85 1011 7 11.265408 0 0
5:15 am 05:15 Hazy 49 9.7 40 4.6 71 71 SE 5 7 29.85 1011 5 8.04672 0 0
5:35 am 05:35 Clear 47 8.1 38 3.6 74 74 Calm 29.85 1011 10 16.09344 0 0
5:55 am 05:55 Hazy 49 9.6 41 4.9 73 73 E 6 9 29.85 1011 2.5 4.02336 0 0
6:15 am 06:15 Clear 47 8.2 40 4.2 76 76 NE 5 7 29.88 1012 10 16.09344 0 0
6:35 am 06:35 Clear 46 8 40 4.4 78 78 NE 7 11 29.91 1013 10 16.09344 0 0
6:55 am 06:55 Hazy 47 8.3 41 5 80 80 ENE 9 15 29.88 1012 4 6.437376 0 0
7:15 am 07:15 Hazy 48 8.7 41 5 78 78 E 6 9 29.85 1011 3 4.828032 0 0
7:35 am 07:35 Hazy 47 8.3 40 4.5 77 77 ENE 5 7 29.85 1011 4 6.437376 0 0
7:55 am 07:55 Hazy 46 7.9 41 4.9 82 82 E 7 11 29.85 1011 2.5 4.02336 0 0
8:15 am 08:15 Hazy 47 8.1 41 5 81 81 Calm 29.88 1012 5 8.04672 0 0
8:35 am 08:35 Sunny 48 8.8 41 5 77 77 E 3 6 29.85 1011 10 16.09344 0 0
8:55 am 08:55 Sunny 47 8.1 40 4.6 79 79 Calm 29.88 1012 10 16.09344 0 0
9:15 am 09:15 Hazy 49 9.4 42 5.7 78 78 Calm 29.88 1012 4 6.437376 0 0
9:35 am 09:35 Hazy 53 11.9 45 7.3 74 74 Calm 29.85 1011 2 3.218688 0 0
9:55 am 09:55 Sunny 55 12.7 46 8 73 73 Calm 29.88 1012 10 16.09344 0 0
10:15 am 10:15 Hazy 58 14.5 48 9 70 70 Calm 29.88 1012 2 3.218688 0 0
10:35 am 10:35 Hazy 61 16.2 49 9.3 64 64 NNE 5 7 29.85 1011 4 6.437376 0 0
10:55 am 10:55 Sunny 62 16.6 48 8.8 60 60 NNE 6 9 29.85 1011 10 16.09344 0 0
11:15 am 11:15 Sunny 64 17.7 49 9.3 58 58 Calm 29.85 1011 10 16.09344 0 0
11:35 am 11:35 Hazy 66 18.7 49 9.3 55 55 NE 3 6 29.8 1009 4 6.437376 0 0
11:55 am 11:55 Sunny 68 19.8 48 9 50 50 N 9 15 29.83 1010 10 16.09344 0 0
12:15 pm 12:15 Sunny 68 20.2 47 8.6 47 47 N 12 19 29.83 1010 10 16.09344 0 0
12:35 pm 12:35 Sunny 69 20.8 46 7.7 43 43 N 14 22 29.85 1011 10 16.09344 0 0
12:55 pm 12:55 Sunny 70 21.3 45 7.3 41 41 N 17 28 29.85 1011 10 16.09344 0 0
1:15 pm 13:15 Sunny 71 21.5 45 7.2 40 40 N 22 35 29.85 1011 7 11.265408 0 0
1:35 pm 13:35 Sunny 69 20.8 45 7.4 42 42 NNE 14 22 29.85 1011 10 16.09344 0 0
1:55 pm 13:55 Sunny 70 21.2 46 7.7 42 42 N 21 33 29.85 1011 10 16.09344 0 0
2:15 pm 14:15 Sunny 71 21.5 46 8 42 42 NNE 21 33 29.85 1011 10 16.09344 0 0
2:35 pm 14:35 Sunny 71 21.9 46 8 41 41 NNE 20 31 29.85 1011 10 16.09344 0 0
2:55 pm 14:55 Sunny 71 21.7 47 8.2 42 42 NNE 20 31 29.85 1011 10 16.09344 0 0
3:15 pm 15:15 Sunny 71 21.5 47 8.4 43 43 NE 18 30 29.85 1011 10 16.09344 0 0
3:35 pm 15:35 Sunny 69 20.8 47 8.5 45 45 NNE 20 31 29.85 1011 10 16.09344 0 0
3:55 pm 15:55 Sunny 69 20.6 47 8.5 46 46 NNE 15 24 29.88 1012 10 16.09344 0 0
4:15 pm 16:15 Sunny 69 20.3 47 8.3 46 46 N 21 33 29.88 1012 10 16.09344 0 0
4:35 pm 16:35 Sunny 68 20.1 47 8.3 47 47 N 20 31 29.91 1013 10 16.09344 0 0
4:55 pm 16:55 Sunny 67 19.5 46 8 48 48 N 18 30 29.91 1013 10 16.09344 0 0
5:15 pm 17:15 Sunny 66 19 47 8.1 49 49 N 18 30 29.94 1014 10 16.09344 0 0
5:35 pm 17:35 Sunny 64 17.9 47 8.1 53 53 N 17 28 29.97 1015 10 16.09344 0 0
5:55 pm 17:55 Sunny 62 16.5 46 8 57 57 NNE 17 28 29.97 1015 10 16.09344 0 0
6:15 pm 18:15 Sunny 60 15.8 46 8 60 60 NNE 17 28 30 1016 10 16.09344 0 0
6:35 pm 18:35 Sunny 59 15 46 8 63 63 N 14 22 30.03 1017 10 16.09344 0 0
6:55 pm 18:55 Clear 58 14.3 46 7.7 65 65 N 18 30 30.06 1018 10 16.09344 0 0
7:15 pm 19:15 Clear 56 13.6 46 7.7 68 68 N 15 24 30.06 1018 10 16.09344 0 0
7:35 pm 19:35 Clear 55 12.7 46 7.6 71 71 N 15 24 30.12 1020 10 16.09344 0 0
7:55 pm 19:55 Mostly Cloudy 54 12.3 46 7.7 74 74 N 17 28 30.12 1020 10 16.09344 0 0
8:15 pm 20:15 Cloudy 54 12.1 46 7.6 74 74 N 17 28 30.12 1020 10 16.09344 0 0
8:35 pm 20:35 Cloudy 53 11.7 46 7.5 76 76 N 16 26 30.12 1020 10 16.09344 0 0
8:55 pm 20:55 Cloudy 53 11.5 45 7.2 75 75 N 16 26 30.12 1020 10 16.09344 0 0
9:15 pm 21:15 Cloudy 52 11.1 45 7.1 77 77 N 17 28 30.12 1020 10 16.09344 0 0
9:35 pm 21:35 Cloudy 51 10.8 44 6.8 77 77 N 16 26 30.12 1020 10 16.09344 0 0
9:55 pm 21:55 Cloudy 51 10.7 44 6.7 77 77 N 15 24 30.15 1021 10 16.09344 0 0
10:15 pm 22:15 Cloudy 51 10.3 44 6.6 78 78 N 16 26 30.18 1022 10 16.09344 0 0
10:35 pm 22:35 Cloudy 50 10 44 6.7 80 80 N 17 28 30.18 1022 10 16.09344 0 0
10:55 pm 22:55 Cloudy 49 9.7 44 6.7 82 82 N 14 22 30.18 1022 10 16.09344 0 0
11:15 pm 23:15 Cloudy 50 9.8 44 6.6 81 81 N 13 20 30.21 1023 10 16.09344 0 0
11:35 pm 23:35 Cloudy 49 9.6 43 6.2 80 80 N 14 22 30.21 1023 10 16.09344 0 0

Powered by AerisWeather